Weather reports worldwide

Advertisment
Hoherodskopf/Vogelsberg, Germany (10534): temperature & dewpoint: 08.07.2020 12:00:00 - 14.07.2020 12:00:00 (CEST)Hoherodskopf/Vogelsberg, Germany (10534): temperature 5cm & temperature -5cm: 08.07.2020 12:00:00 - 14.07.2020 12:00:00 (CEST)Hoherodskopf/Vogelsberg, Germany (10534): temperature -20cm & temperature -100cm: 08.07.2020 12:00:00 - 14.07.2020 12:00:00 (CEST)Hoherodskopf/Vogelsberg, Germany (10534): wind speed & gusts: 08.07.2020 12:00:00 - 14.07.2020 12:00:00 (CEST)Hoherodskopf/Vogelsberg, Germany (10534): wind direction: 08.07.2020 12:00:00 - 14.07.2020 12:00:00 (CEST)Hoherodskopf/Vogelsberg, Germany (10534): reduced air pressure: 08.07.2020 12:00:00 - 14.07.2020 12:00:00 (CEST)Hoherodskopf/Vogelsberg, Germany (10534): visibility: 08.07.2020 12:00:00 - 14.07.2020 12:00:00 (CEST)Hoherodskopf/Vogelsberg, Germany (10534): sunshine duration: 08.07.2020 12:00:00 - 14.07.2020 12:00:00 (CEST)Hoherodskopf/Vogelsberg, Germany (10534): precipitation: 08.07.2020 12:00:00 - 14.07.2020 12:00:00 (CEST)
Date & Time tt [°C] td [°C] tt 5cm [°C] tt -5cm [°C] tt -20cm [°C] tt -100cm [°C] ff [km/h] ff [kn] fx [km/h] fx [kn] dd ppp [hPa] vv [km] sd [min] rr [mm]
14.07.2020 12:00:00 19,7 6,2 26,8 24,0 16,6 12,9 16 9 24 13 SSW 1014,0 63 60 0,0
14.07.2020 11:00:00 19,4 7,2 25,7 21,1 16,5 12,9 10 6 19 10 SSW 1014,4 62 60 0,0
14.07.2020 10:00:00 19,1 6,9 23,2 18,6 16,6 12,9 9 5 14 8 SSW 1014,7 50 60 0,0
14.07.2020 09:00:00 18,1 6,6 21,7 16,1 16,8 12,9 7 4 11 6 SSW 1015,2 54 60 0,0
14.07.2020 08:00:00 16,4 6,1 16,3 14,5 17,1 12,9 8 4 13 7 SSE 1015,9 64 60 0,0
14.07.2020 07:00:00 15,7 5,6 13,0 14,2 17,4 12,9 9 5 13 7 SE 1016,3 75 17 0,0
14.07.2020 06:00:00 15,5 5,2 12,4 14,5 17,7 12,9 10 5 13 7 SE 1016,5 65 0 0,0
14.07.2020 05:00:00 15,9 5,2 12,6 14,9 18,0 12,9 9 5 14 7 SE 1016,8 56 0 0,0
14.07.2020 04:00:00 16,1 5,6 12,7 15,4 18,3 12,9 9 5 13 7 SE 1017,0 69 0 0,0
14.07.2020 03:00:00 16,5 5,3 12,2 16,0 18,6 12,9 8 5 14 7 SSE 1017,4 67 0 0,0
14.07.2020 02:00:00 16,7 5,4 11,2 16,8 18,9 12,9 6 3 9 5 SE 1017,7 75 0 0,0
14.07.2020 01:00:00 17,0 5,5 13,0 17,7 19,1 12,9 7 4 9 5 SE 1017,9 62 0 0,0
14.07.2020 00:00:00 16,9 5,3 11,9 18,8 19,3 12,9 7 4 8 5 SSE 1018,4 75 0 0,0
13.07.2020 23:00:00 17,3 5,9 12,4 20,1 19,3 12,9 6 3 8 4 SSE 1018,7 74 0 0,0
13.07.2020 22:00:00 17,5 6,2 12,8 21,8 19,2 12,9 5 3 7 4 SSE 1018,8 71 23 0,0
13.07.2020 21:00:00 17,8 6,4 14,8 23,7 19,0 12,9 4 2 8 4 ESE 1018,7 62 14 0,0
13.07.2020 20:00:00 18,2 6,5 18,5 25,8 18,6 12,9 6 3 9 5 ENE 1018,7 61 50 0,0
13.07.2020 19:00:00 19,8 6,5 23,7 26,5 18,1 12,9 5 3 14 7 E 1018,6 48 55 0,0
13.07.2020 18:00:00 19,7 8,3 24,3 26,4 17,6 12,9 6 4 13 7 SE 1018,9 47 39 0,0
13.07.2020 17:00:00 19,3 6,8 22,4 26,6 17,1 12,9 5 3 11 6 E 1019,7 68 24 0,0
13.07.2020 16:00:00 18,7 7,5 23,2 27,4 16,5 12,9 8 4 17 9 NNW 1020,3 57 20 0,0
13.07.2020 15:00:00 20,5 9,3 29,5 26,3 15,9 12,9 6 4 18 10 S 1020,1 51 50 0,0
13.07.2020 14:00:00 17,9 7,2 23,5 25,1 15,4 12,9 6 3 18 10 E 1021,6 75 29 0,0
13.07.2020 13:00:00 17,6 5,7 24,8 24,0 15,0 12,9 12 7 23 13 SSE 1022,3 50 60 0,0
13.07.2020 12:00:00 16,9 5,5 23,6 21,4 14,7 12,9 5 3 19 10 S 1023,1 69 54 0,0
13.07.2020 11:00:00 17,2 6,6 23,3 18,9 14,7 12,9 9 5 27 14 ESE 1023,2 64 60 0,0
13.07.2020 10:00:00 15,7 6,0 19,3 16,0 14,7 12,9 12 7 19 11 SE 1023,7 67 60 0,0
13.07.2020 09:00:00 15,2 6,2 17,7 13,5 14,9 12,9 9 5 20 11 ESE 1024,1 50 60 0,0
13.07.2020 08:00:00 13,7 6,3 14,7 11,8 15,2 12,9 9 5 19 10 ESE 1024,5 58 60 0,0
13.07.2020 07:00:00 12,5 5,2 10,8 11,6 15,4 12,9 10 5 22 12 E 1024,9 64 27 0,0
13.07.2020 06:00:00 12,0 5,0 9,7 11,8 15,7 12,9 10 5 21 12 E 1024,9 75 0 0,0
13.07.2020 05:00:00 11,3 5,0 8,1 12,2 15,9 12,9 10 5 19 10 E 1025,4 75 0 0,0
13.07.2020 04:00:00 11,6 4,9 9,6 12,8 16,2 12,9 9 5 23 12 ENE 1025,7 71 0 0,0
13.07.2020 03:00:00 11,9 4,8 9,8 13,3 16,5 12,9 10 5 24 13 ENE 1025,7 66 0 0,0
13.07.2020 02:00:00 12,2 5,0 10,5 14,0 16,7 12,9 13 7 29 16 ENE 1025,7 65 0 0,0
13.07.2020 01:00:00 12,4 5,5 10,9 14,7 16,9 12,9 13 7 26 14 ENE 1026,0 69 0 0,0
13.07.2020 00:00:00 12,8 5,5 11,1 15,5 17,1 12,9 14 8 27 15 NE 1026,1 73 0 0,0
12.07.2020 23:00:00 13,1 5,9 11,6 16,5 17,1 12,9 14 7 25 13 NE 1026,3 68 0 0,0
12.07.2020 22:00:00 13,5 5,3 12,0 17,8 17,1 12,9 15 8 25 14 NE 1026,1 67 11 0,0
12.07.2020 21:00:00 14,2 5,5 13,2 19,2 17,0 12,9 10 5 20 11 NNE 1025,5 69 56 0,0
12.07.2020 20:00:00 15,9 6,0 18,2 20,1 16,8 12,9 8 4 19 10 NNE 1025,3 57 58 0,0
12.07.2020 19:00:00 15,9 6,9 17,5 20,7 16,6 12,9 6 4 19 10 NNE 1025,5 75 15 0,0
12.07.2020 18:00:00 16,3 5,1 18,2 21,6 16,3 12,9 6 4 21 12 NE 1025,4 67 11 0,0
12.07.2020 17:00:00 16,6 4,4 20,7 21,7 16,0 12,9 10 5 32 18 N 1025,5 44 11 0,0
12.07.2020 16:00:00 16,0 3,8 20,0 22,1 15,6 12,9 8 5 18 10 NNW 1026,1 59 7 0,0
12.07.2020 15:00:00 15,8 6,2 20,7 21,8 15,2 12,9 13 7 26 14 NW 1026,1 72 22 0,0
12.07.2020 14:00:00 15,0 5,5 18,8 21,5 14,9 12,9 6 4 23 12 NNW 1026,7 45 4 0,0
12.07.2020 13:00:00 16,3 6,8 25,1 20,3 14,6 12,9 7 4 16 9 ESE 1026,3 41 42 0,0
12.07.2020 12:00:00 13,5 7,0 16,2 18,5 14,5 12,9 6 3 10 5 ESE 1027,0 36 1 0,0
12.07.2020 11:00:00 13,2 6,5 17,5 18,6 14,4 12,9 8 5 19 10 W 1026,9 75 51 0,0
12.07.2020 10:00:00 14,3 7,2 18,3 15,1 14,5 12,9 8 4 17 9 ESE 1026,5 75 60 0,0
12.07.2020 09:00:00 13,3 6,2 16,0 12,6 14,7 12,9 7 4 18 10 E 1026,7 59 60 0,0
12.07.2020 08:00:00 12,0 6,2 12,4 11,1 15,0 12,9 9 5 16 9 ENE 1026,6 63 33 0,0
12.07.2020 07:00:00 10,8 5,8 9,0 11,1 15,3 12,9 9 5 18 10 ENE 1026,5 66 28 0,0
12.07.2020 06:00:00 10,4 5,2 8,6 11,4 15,6 12,9 12 6 20 11 NE 1026,3 64 0 0,0
12.07.2020 05:00:00 10,2 5,6 8,4 11,8 15,9 12,9 14 8 22 12 NE 1026,1 64 0 0,0
12.07.2020 04:00:00 10,2 6,0 8,7 12,3 16,2 12,9 16 9 25 14 NE 1026,2 57 0 0,0
12.07.2020 03:00:00 10,1 6,0 8,4 12,9 16,4 12,9 14 8 24 13 NE 1026,5 67 0 0,0
12.07.2020 02:00:00 10,4 5,9 8,6 13,6 16,7 12,9 14 8 27 14 NNE 1026,4 61 0 0,0
12.07.2020 01:00:00 10,2 6,0 8,7 14,4 17,0 12,9 14 8 26 14 NNE 1026,3 74 0 0,0
12.07.2020 00:00:00 11,7 4,6 7,8 15,5 17,1 12,9 7 4 13 7 NNE 1025,9 75 0 0,0
11.07.2020 23:00:00 12,3 4,5 9,1 16,8 17,1 12,9 8 4 11 6 N 1025,6 67 0 0,0
11.07.2020 22:00:00 12,1 5,1 9,8 18,4 17,0 12,9 8 4 13 7 NNE 1025,3 65 18 0,0
11.07.2020 21:00:00 12,9 5,7 12,8 20,3 16,8 12,9 7 4 11 6 NNE 1024,7 67 33 0,0
11.07.2020 20:00:00 14,6 5,8 17,0 21,9 16,5 12,9 7 4 18 10 N 1024,1 64 54 0,0
11.07.2020 19:00:00 14,0 6,0 17,2 22,9 16,1 12,9 10 5 25 13 NNW 1023,9 65 44 0,0
11.07.2020 18:00:00 15,3 5,8 22,2 22,5 15,7 12,9 12 7 24 13 NNW 1023,4 75 31 0,0
11.07.2020 17:00:00 15,2 6,0 21,4 22,3 15,4 12,9 12 7 23 12 NW 1023,5 75 28 0,0
11.07.2020 16:00:00 14,5 6,4 19,8 22,0 15,0 12,9 12 7 23 13 NW 1023,4 70 13 0,0
11.07.2020 15:00:00 13,8 6,2 20,3 21,2 14,6 12,9 10 5 25 13 NNW 1023,6 75 10 0,0
11.07.2020 14:00:00 14,0 5,1 20,3 20,8 14,3 12,9 14 7 29 16 NW 1023,3 56 27 0,0
11.07.2020 13:00:00 13,3 4,7 21,8 19,4 14,0 12,9 13 7 25 13 NNW 1023,2 50 39 0,0
11.07.2020 12:00:00 11,8 6,9 15,0 18,3 13,9 12,9 16 9 23 12 NW 1023,4 45 24 0,0
11.07.2020 11:00:00 12,8 5,8 18,7 16,6 13,8 12,9 13 7 26 14 WNW 1022,5 75 49 0,0
11.07.2020 10:00:00 11,4 6,9 16,7 14,1 13,9 12,9 9 5 21 11 NNW 1022,7 42 58 0,0
11.07.2020 09:00:00 10,6 5,6 13,8 12,0 14,1 12,9 11 6 21 11 NNE 1022,4 68 60 0,0
11.07.2020 08:00:00 9,7 5,9 11,5 10,7 14,3 12,9 12 6 27 15 NNE 1022,0 49 58 0,0
11.07.2020 07:00:00 8,6 5,8 7,2 10,4 14,5 12,9 14 8 27 15 NE 1021,6 57 27 0,0
11.07.2020 06:00:00 8,1 6,2 6,7 10,8 14,7 12,9 13 7 27 15 NNE 1021,5 52 0 0,0
11.07.2020 05:00:00 8,3 7,3 7,6 11,3 14,9 12,9 12 7 25 14 NNE 1021,1 28 0 0,0
11.07.2020 04:00:00 8,4 7,3 7,4 11,8 15,1 12,9 13 7 27 15 NNE 1020,9 36 0 0,0
11.07.2020 03:00:00 8,8 7,3 8,1 12,3 15,3 12,9 14 7 28 15 NNE 1020,6 44 0 0,0
11.07.2020 02:00:00 9,2 7,5 8,7 12,9 15,5 13,0 13 7 24 13 N 1020,1 57 0 0,0
11.07.2020 01:00:00 10,0 8,8 9,6 13,3 15,7 13,0 11 6 27 15 N 1019,4 47 0 0,0
11.07.2020 00:00:00 10,8 8,2 10,4 13,8 15,8 13,0 17 9 25 13 N 1018,5 69 0 0,0
10.07.2020 23:00:00 11,2 8,9 10,8 14,3 15,9 13,0 18 10 29 15 NNW 1017,9 62 0 0,0
10.07.2020 22:00:00 11,9 9,3 11,3 15,0 16,0 13,0 16 9 29 16 NNW 1017,3 62 15 0,0
10.07.2020 21:00:00 13,1 9,3 12,9 15,7 16,1 13,0 15 8 28 15 NNW 1016,4 55 2 0,0
10.07.2020 20:00:00 13,6 10,0 13,8 16,1 16,2 13,0 15 8 25 14 NW 1015,7 54 0 0,0
10.07.2020 19:00:00 14,0 9,8 14,4 16,4 16,2 13,0 16 9 38 20 WNW 1014,9 67 0 0,0
10.07.2020 18:00:00 14,3 9,5 14,2 17,1 16,2 13,0 28 15 45 24 WNW 1014,5 69 0 0,0
10.07.2020 17:00:00 15,3 11,4 15,8 17,8 16,1 13,0 25 14 45 24 W 1013,6 74 0 0,0
10.07.2020 16:00:00 15,9 10,0 16,4 18,3 16,0 13,0 29 15 46 25 W 1013,1 67 1 0,0
10.07.2020 15:00:00 16,3 11,2 17,2 18,2 15,8 13,0 30 16 45 25 W 1012,2 75 0 0,0
10.07.2020 14:00:00 16,4 11,6 17,5 18,6 15,7 13,0 27 15 48 26 W 1011,5 57 22 0,0
10.07.2020 13:00:00 17,1 12,2 19,1 18,1 15,6 13,0 28 15 55 30 WSW 1010,4 75 8 0,0
10.07.2020 12:00:00 16,7 12,7 17,6 18,4 15,4 13,0 30 16 47 25 WSW 1009,7 63 16 0,0
10.07.2020 11:00:00 16,9 13,4 18,7 18,0 15,3 13,0 29 16 46 25 WSW 1009,1 47 26 0,0
10.07.2020 10:00:00 17,4 13,6 20,2 17,5 15,3 13,0 24 13 36 19 W 1008,5 40 56 0,0
10.07.2020 09:00:00 17,4 13,2 19,5 16,1 15,4 13,0 23 13 38 21 WSW 1008,3 51 54 0,0
10.07.2020 08:00:00 18,0 12,3 19,1 14,9 15,4 13,0 21 12 42 23 SW 1008,1 48 16 0,0
10.07.2020 07:00:00 17,3 11,5 16,5 14,7 15,5 13,0 29 16 42 23 SSW 1008,4 69 0 0,0
10.07.2020 06:00:00 17,6 11,3 16,5 14,8 15,6 13,0 21 11 31 17 S 1008,6 56 0 0,0
10.07.2020 05:00:00 18,1 11,4 16,8 14,9 15,7 13,0 21 12 28 15 SSE 1008,8 62 0 0,0
10.07.2020 04:00:00 18,1 11,5 16,7 15,1 15,8 13,0 16 9 23 13 SSE 1009,7 55 0 0,0
10.07.2020 03:00:00 18,0 12,1 16,5 15,3 15,9 13,0 15 8 19 10 SSE 1010,3 56 0 0,0
10.07.2020 02:00:00 18,3 12,0 17,0 15,5 16,0 13,0 9 5 12 7 SE 1010,9 62 0 0,0
10.07.2020 01:00:00 19,2 11,5 16,8 15,8 16,0 13,0 7 4 13 7 WSW 1011,3 58 0 0,0
10.07.2020 00:00:00 18,2 12,7 16,5 16,0 16,1 13,0 13 7 20 11 NNW 1012,0 63 0 0,0
09.07.2020 23:00:00 17,6 13,3 16,3 16,3 16,1 13,0 10 5 25 14 N 1012,4 59 0 0,0
09.07.2020 22:00:00 18,9 11,4 16,5 16,8 16,1 13,0 16 9 34 18 W 1011,7 68 8 0,0
09.07.2020 21:00:00 20,0 11,3 18,8 17,6 16,0 13,0 19 11 32 17 W 1011,2 75 2 0,0
09.07.2020 20:00:00 20,4 11,6 19,5 18,4 15,8 13,0 19 10 30 16 WSW 1011,2 67 4 0,0
09.07.2020 19:00:00 20,1 12,5 19,8 19,2 15,5 13,0 17 9 27 15 W 1011,4 66 6 0,0
09.07.2020 18:00:00 20,3 12,6 20,4 19,8 15,2 13,0 17 9 38 20 W 1011,5 26 5 0,0
09.07.2020 17:00:00 20,7 12,7 21,5 20,2 15,0 13,0 21 11 31 17 WSW 1011,9 70 27 0,0
09.07.2020 16:00:00 20,0 14,4 21,7 19,5 14,7 13,0 16 9 39 21 SW 1012,4 72 30 0,0
09.07.2020 15:00:00 19,4 14,3 22,2 18,4 14,5 13,0 26 14 40 22 WSW 1012,9 75 24 0,0
09.07.2020 14:00:00 16,7 15,2 18,0 17,6 14,3 13,0 18 10 33 18 SW 1014,1 31 12 0,0
09.07.2020 13:00:00 15,9 15,4 18,0 16,1 14,3 13,0 18 10 34 18 SSW 1014,3 17 2 0,0
09.07.2020 12:00:00 14,9 14,9 16,5 15,0 14,2 13,0 21 12 32 17 SSW 1014,7 0,2 1 0,0
09.07.2020 11:00:00 14,2 14,2 15,1 14,4 14,2 13,0 19 10 31 17 SW 1014,9 0,1 0 0,0
09.07.2020 10:00:00 13,6 13,6 14,1 13,9 14,2 13,0 18 10 29 16 SW 1015,3 0,1 0 0,0
09.07.2020 09:00:00 13,2 13,2 13,6 13,5 14,2 13,0 19 10 30 16 SW 1015,5 - 0 0,3
09.07.2020 08:00:00 13,0 13,0 13,2 13,3 14,3 13,0 18 10 30 16 SW 1015,5 - 0 0,1
09.07.2020 07:00:00 12,9 12,9 13,0 13,2 14,3 13,0 16 9 26 14 SW 1015,5 - 0 0,2
09.07.2020 06:00:00 12,8 12,8 12,9 13,1 14,4 13,0 16 9 27 15 SSW 1015,5 - 0 0,7
09.07.2020 05:00:00 12,4 12,4 12,5 13,0 14,4 13,0 14 8 27 14 SW 1015,8 0,1 0 0,5
09.07.2020 04:00:00 12,1 12,1 12,2 13,0 14,5 13,0 18 10 26 14 SSW 1015,9 - 0 0,3
09.07.2020 03:00:00 11,8 11,8 11,9 13,0 14,6 13,0 16 9 24 13 S 1016,3 0,1 0 0,5
09.07.2020 02:00:00 11,5 11,5 11,6 13,0 14,7 13,0 15 8 21 11 S 1016,6 0,1 0 0,1
09.07.2020 01:00:00 11,3 11,3 11,5 13,1 14,7 13,0 14 7 19 10 S 1017,4 - 0 0,0
09.07.2020 00:00:00 11,3 11,3 11,5 13,2 14,8 13,0 10 5 14 7 S 1017,7 - 0 0,0
08.07.2020 23:00:00 11,2 11,2 11,4 13,4 14,9 13,0 10 5 13 7 S 1017,6 - 0 0,0
08.07.2020 22:00:00 10,9 10,9 11,2 13,6 14,9 13,0 6 3 11 6 SW 1017,7 0,2 0 0,0
08.07.2020 21:00:00 10,8 10,8 11,2 13,9 15,0 13,1 9 5 17 9 W 1017,5 0,1 0 0,0
08.07.2020 20:00:00 10,9 10,9 11,6 14,1 15,0 13,1 10 6 21 11 W 1017,3 0,1 0 0,0
08.07.2020 19:00:00 10,8 10,8 11,5 14,3 15,0 13,1 15 8 21 11 W 1017,4 0,1 0 0,0
08.07.2020 18:00:00 10,6 10,6 11,5 14,4 15,0 13,1 15 8 22 12 W 1017,4 0,1 0 0,0
08.07.2020 17:00:00 10,5 10,5 11,3 14,6 15,1 13,1 14 8 22 12 WSW 1017,5 0,1 0 0,1
08.07.2020 16:00:00 10,8 10,8 12,2 14,4 15,1 13,1 13 7 19 11 WSW 1016,9 0,1 0 0,1
08.07.2020 15:00:00 10,4 10,4 11,7 14,2 15,2 13,1 13 7 20 11 SW 1017,0 0,1 0 0,3
08.07.2020 14:00:00 10,0 10,0 11,4 13,6 15,3 13,1 14 8 24 13 WSW 1017,0 0,1 0 0,7
08.07.2020 13:00:00 9,2 9,2 10,5 13,4 15,5 13,1 14 7 23 12 W 1017,4 0,1 0 0,7
08.07.2020 12:00:00 8,7 8,7 9,9 13,3 15,6 13,1 15 8 25 13 W 1017,3 0,1 0 1,1

tt = temperature
td = dewpoint
tt 5cm = temperature 5cm
tt -5cm = temperature -5cm
tt -20cm = temperature -20cm
tt -100cm = temperature -100cm
ff = wind speed
fx = gusts
dd = wind direction
ppp = reduced air pressure
vv = visibility
sd = sunshine duration
rr = precipitation

Next stations